Location: Newark
(25.0000°N, 73.5000°E)
Time: 18:20:49
(UTC+00:00)

Altair - Pass Details

Date: 04 March 2021
Orbit: 1501 x 1683 km, 47.2° (Epoch: 10 April)

Event Time Altitude Azimuth Distance (km) Brightness Sun altitude
Rises 20:50:04 0° 311° (NW) 4,776 - -60.9°
Reaches altitude 10° 20:53:07 10° 310° (NW) 3,813 - -60.3°
Maximum altitude 21:02:52 77° 226° (SW) 1,680 - -58.5°
Drops below altitude 10° 21:12:55 10° 142° (SE) 3,923 - -56.5°
Exits shadow 21:15:35 - 141° (SE) 4,755 10.1 -56.0°
Sets 21:16:06 0° 141° (SE) 4,918 10.2 -55.9°
